Weather History for KHAO - November, 2013

Change the Weather History Date:

Sunday, November 10, 2013

  Actual Average (KCVG) Record (KCVG)
Temperature  
Mean Temperature 39 °F 48 °F  
Max Temperature 50 °F 57 °F 74 °F (1964)
Min Temperature 26 °F 38 °F 18 °F (1973)
Degree Days  
Heating Degree Days 26 18  
Month to date heating degree days 159  
Since 1 July heating degree days 521  
Cooling Degree Days 0 0  
Month to date cooling degree days 0  
Year to date cooling degree days 1121  
Moisture  
Dew Point 30 °F    
Average Humidity 66    
Maximum Humidity 92    
Minimum Humidity 43    
Precipitation  
Precipitation 0.00 in 0.10 in 1.40 in (1891)
Month to date precipitation 1.06  
Year to date precipitation 36.78  
Snow  
Snow 0.00 in 0.00 in 0.30 in (1948)
Month to date snowfall 0.1  
Since 1 July snowfall 0.5  
Since 1 September snowfall 0.5  
Snow Depth -    
Sea Level Pressure  
Sea Level Pressure 30.29 in    
Wind  
Wind Speed 7 mph (WNW)    
Max Wind Speed 15 mph    
Max Gust Speed 22 mph    
Visibility 10 miles    
Events      
T = Trace of Precipitation, MM = Missing Value Source: NWS Daily Summary

Daily Weather History Graph

Daily Weather History Graph

Search for Another Location

Airport or City:

Trip Planner

Search our weather history database for the weather conditions in past years. The results will help you decide how hot, cold, wet, or windy it might be!

Date:

Astronomy

Nov. 10, 2013 Rise Set
Actual Time 7:16 AM EST 5:27 PM EST
Civil Twilight 6:48 AM EST 5:55 PM EST
Nautical Twilight 6:15 AM EST 6:27 PM EST
Astronomical Twilight 5:44 AM EST 6:59 PM EST
Moon 1:30 PM EST (11/10) No Moon Set
Length of Visible Light 11h 07m
Length of Day
10h 10m
First Quarter, 55% of the Moon is Illuminated
Nov 10
First Quarter
Nov 17
Full
Nov 25
Last Quarter
Dec 2
New
Dec 9
First Quarter

Hourly Weather History & Observations

Time (EST) Temp. Windchill Dew Point Humidity Pressure Visibility Wind Dir Wind Speed Gust Speed Precip Events Conditions
12:53 AM 46.9 °F - 39.0 °F 74% 30.13 in 10.0 mi West 5.8 mph - N/A   Clear
1:53 AM 46.0 °F 43.9 °F 39.0 °F 76% 30.14 in 10.0 mi West 4.6 mph - N/A   Clear
2:53 AM 44.1 °F 41.5 °F 37.9 °F 79% 30.15 in 10.0 mi West 4.6 mph - N/A   Clear
3:53 AM 43.0 °F 40.3 °F 37.0 °F 80% 30.16 in 10.0 mi West 4.6 mph - N/A   Clear
4:53 AM 45.0 °F 41.8 °F 36.0 °F 71% 30.16 in 10.0 mi West 5.8 mph - N/A   Clear
5:53 AM 45.0 °F 39.3 °F 35.1 °F 68% 30.20 in 10.0 mi WNW 11.5 mph 18.4 mph N/A   Clear
6:53 AM 43.0 °F 37.7 °F 33.1 °F 68% 30.23 in 10.0 mi WNW 9.2 mph - N/A   Clear
7:53 AM 42.1 °F 34.9 °F 28.9 °F 60% 30.27 in 10.0 mi NW 13.8 mph - N/A   Clear
8:53 AM 43.0 °F 36.8 °F 28.9 °F 58% 30.30 in 10.0 mi WNW 11.5 mph 18.4 mph N/A   Clear
9:53 AM 46.0 °F 39.6 °F 26.1 °F 46% 30.32 in 10.0 mi WNW 15.0 mph 21.9 mph N/A   Clear
10:53 AM 46.9 °F - 28.0 °F 48% 30.33 in 10.0 mi NW 15.0 mph - N/A   Clear
11:53 AM 48.9 °F - 30.0 °F 48% 30.34 in 10.0 mi NW 11.5 mph - N/A   Clear
12:53 PM 50.0 °F - 28.0 °F 43% 30.34 in 10.0 mi WNW 12.7 mph 19.6 mph N/A   Clear
1:53 PM 50.0 °F - 30.0 °F 46% 30.33 in 10.0 mi WNW 12.7 mph 21.9 mph N/A   Partly Cloudy
2:53 PM 50.0 °F - 30.0 °F 46% 30.34 in 10.0 mi WNW 9.2 mph - N/A   Clear
3:53 PM 48.9 °F - 28.9 °F 46% 30.34 in 10.0 mi WNW 13.8 mph - N/A   Clear
4:53 PM 46.0 °F 41.0 °F 30.0 °F 54% 30.35 in 10.0 mi NNW 10.4 mph - N/A   Clear
5:53 PM 41.0 °F - 28.9 °F 62% 30.36 in 10.0 mi Calm Calm - N/A   Clear
6:53 PM 35.1 °F - 28.9 °F 78% 30.38 in 10.0 mi Calm Calm - N/A   Clear
7:53 PM 30.9 °F - 27.0 °F 85% 30.38 in 10.0 mi Calm Calm - N/A   Clear
8:53 PM 30.0 °F - 26.1 °F 85% 30.38 in 10.0 mi Calm Calm - N/A   Clear
9:53 PM 28.0 °F - 25.0 °F 88% 30.39 in 9.0 mi Calm Calm - N/A   Clear
10:53 PM 28.0 °F - 25.0 °F 88% 30.37 in 7.0 mi Calm Calm - N/A   Clear
11:53 PM 26.1 °F 21.9 °F 24.1 °F 92% 30.33 in 7.0 mi East 3.5 mph - N/A   Clear